Weather in Santiago

Chile     33°28′39″S   70°38′32″W
temp.,
°C
wind,
m/s
gust,
m/s
humid.,
%
clouds,
%
prec.,
mm/h
press.,
hPa
HPBL,
m
24 january, mon
mon2400:00+21sw22350 0.0 1013229
03:00+19ssw12390 0.0 1012128
06:00+18s11340 0.0 101252
09:00+20ssw11250 0.0 1013262
12:00+27wsw22170 0.0 1012846
15:00+32wsw33120 0.0 10101604
18:00+31wsw64160 0.0 10091336
21:00+23sw24350 0.0 1011461
25 january, tue
tue2500:00+20sw22420 0.0 1012269
03:00+18sw11510 0.0 1012183
06:00+17sw12590 0.0 1011158
09:00+19sw21520 0.0 1013293
12:00+26wsw22310 0.0 1012771
15:00+31wsw43190 0.0 10111526
18:00+29wsw54240 0.0 1010958
21:00+22wsw33380 0.0 1012428
26 january, wed
wed2600:00+19sw22490 0.0 1013273
03:00+18sw11560 0.0 1012189
06:00+17sw11610 0.0 1012142
09:00+19sw11510 0.0 1013260
12:00+27wsw22300 0.0 1012716
15:00+32wsw43200 0.0 10111398
18:00+29wsw55270 0.0 1011838
21:00+23sw33390 0.0 1013404
27 january, thu
thu2700:00+19sw22480 0.0 1014264
03:00+18sw11540 0.0 1013188
06:00+17sw11580 0.0 1013149
09:00+19sw11520 0.0 1014289
12:00+25wsw22340 0.0 1013773
15:00+30wsw43250 0.0 10111321
18:00+27wsw65310 0.0 1012863
21:00+21wsw33440 0.0 1013463
28 january, fri
fri2800:00+18sw22560 0.0 1014301
03:00+17sw22640 0.0 1013231
06:00+16sw11690 0.0 1013180
09:00+18sw11610 0.0 1013305
12:00+25wsw22380 0.0 1012797
15:00+30wsw44290 0.0 10111402
18:00+27wsw55340 0.0 1011902
21:00+21wsw33460 0.0 1012437